Wind_Speed
21 22 23 24 24 25 25 25 25 25 26 26 26 26 25 25 25 25 25 24 24 24 24 24 24 24 24 23 23 23 23 23 23 23 23 23 23 23 23 23 23 24 24 23 22 21 20 19 18 18 18 19 19 19 19 19 18 18 18 17 18 19 22 25 27 27 27 27 26 26 27 28 29 29 29 30 31 33 34 34 35 35 34 33 31 29 29 32
21 22 23 23 23 23 23 23 23 23 24 24 23 23 23 24 24 24 24 24 24 24 24 24 24 24 24 24 23 23 22 22 23 23 23 23 23 24 23 23 24 24 24 23 22 21 20 20 19 19 19 19 19 19 19 19 18 17 17 17 18 22 25 26 27 27 27 27 26 26 27 27 28 27 27 29 30 31 32 32 32 32 31 30 29 28 29 30
21 22 22 22 22 21 21 21 21 21 21 21 21 21 22 22 22 23 23 23 23 23 23 24 24 24 24 24 23 23 22 23 23 23 23 23 24 24 24 24 25 24 24 23 23 22 21 21 20 21 21 21 21 20 20 19 18 18 17 18 22 25 27 27 27 28 28 27 26 26 26 26 27 26 27 27 28 30 30 30 29 29 28 29 29 29 29 27
21 21 21 21 20 19 19 19 19 19 19 19 19 19 20 20 20 21 21 21 21 21 22 22 22 23 23 23 23 23 22 23 23 23 23 24 24 24 24 25 24 24 24 24 23 23 22 22 22 22 22 23 22 22 21 20 20 18 17 20 24 26 27 27 28 28 28 27 26 26 26 26 26 26 27 27 28 29 29 30 30 30 30 30 29 29 28 25
20 20 19 18 18 17 17 17 17 17 17 17 16 17 18 18 18 18 18 19 19 19 20 20 21 22 22 22 22 22 22 23 22 22 23 23 23 23 23 24 24 23 24 24 24 23 23 23 23 23 24 24 24 23 23 22 21 19 19 22 24 25 26 27 28 28 28 27 26 26 26 26 26 26 27 28 29 29 30 32 32 32 32 30 29 28 27 25
18 18 17 16 15 15 15 15 14 15 15 14 14 15 15 16 16 16 16 17 17 17 17 18 19 19 19 19 20 21 21 21 21 21 22 21 22 22 22 22 22 23 23 23 24 24 24 24 25 25 25 26 25 25 25 25 23 21 21 23 24 24 25 27 27 27 27 27 26 25 25 25 26 27 28 29 30 31 32 33 33 33 33 31 30 29 27 25
16 15 15 14 13 13 13 13 13 13 12 12 13 13 13 13 14 14 15 15 15 15 16 17 17 16 16 17 18 18 19 19 19 19 19 19 20 20 21 21 21 22 22 23 24 24 25 25 26 26 27 27 27 27 27 26 25 23 23 24 25 24 25 26 26 26 26 25 24 24 25 25 26 28 28 29 31 33 33 33 33 33 32 31 30 29 28 27
14 14 13 12 12 11 11 11 11 11 11 11 11 12 12 12 12 12 13 13 13 14 15 15 14 13 14 15 15 15 16 16 16 17 17 17 17 18 20 20 20 21 21 22 23 24 25 25 26 26 27 27 26 27 28 26 25 25 25 25 25 25 26 26 26 26 26 25 23 23 24 25 27 28 29 30 33 33 34 33 33 33 32 31 31 30 30 28
13 12 12 11 11 10 10 10 10 10 9 9 10 10 10 10 11 11 11 12 12 13 14 14 13 12 12 12 13 14 14 14 14 14 14 14 15 16 17 18 19 20 20 21 22 23 23 23 23 23 24 24 25 26 25 24 24 25 26 26 25 25 26 26 26 26 26 26 24 23 24 25 26 28 30 32 33 33 34 34 34 33 33 33 32 31 30 29
13 12 11 11 11 10 9 9 9 9 8 8 8 9 9 9 10 11 11 11 12 12 13 12 11 11 12 12 12 13 13 13 13 13 13 12 12 13 15 16 17 18 19 19 19 19 19 19 19 19 20 21 22 22 21 22 23 24 26 26 25 25 26 26 26 27 27 26 25 24 24 26 26 27 30 32 32 33 34 34 34 33 33 32 31 30 29 28
12 12 11 11 11 10 9 9 8 8 8 7 7 7 8 9 10 10 11 11 12 12 12 12 11 11 12 12 13 12 12 12 12 12 11 11 11 11 12 14 15 16 16 17 17 17 17 16 16 17 18 18 18 18 18 19 21 23 24 24 25 25 26 26 27 27 27 27 26 26 26 26 25 25 28 30 31 32 32 32 30 30 30 30 28 26 24 24
12 12 12 11 11 11 10 9 9 8 7 7 7 7 7 7 9 10 11 12 12 13 13 12 11 11 12 12 13 12 12 11 11 11 11 10 10 10 11 11 13 14 15 16 17 17 17 16 16 16 16 16 16 16 17 18 20 22 21 22 23 24 25 26 26 26 27 27 27 27 26 26 25 27 29 30 30 30 30 29 28 28 28 27 25 22 21 22
13 12 12 12 11 11 11 10 9 9 8 8 7 7 6 7 8 9 10 12 13 14 14 13 12 11 11 12 12 12 12 12 12 12 11 10 9 9 9 9 10 11 13 14 15 15 15 15 16 16 16 17 16 15 17 18 20 20 18 19 20 22 23 24 25 26 27 28 28 27 27 27 28 30 32 31 31 31 30 28 28 28 27 25 23 22 22 22
13 13 12 12 12 11 11 11 10 9 9 9 8 8 7 7 7 8 9 11 12 14 14 13 12 12 11 12 13 13 13 13 13 12 11 10 9 9 8 8 8 9 11 12 13 13 13 14 16 17 18 18 16 16 17 18 18 17 16 16 17 18 21 23 24 26 29 31 30 29 29 29 29 32 33 32 31 31 29 28 27 27 26 25 25 24 23 22
14 14 13 13 12 12 12 11 11 10 10 10 10 9 9 8 8 8 9 10 11 13 13 13 13 12 12 12 13 13 13 13 13 12 12 11 10 9 8 8 8 8 9 10 10 11 12 13 15 17 18 18 17 16 17 17 16 15 14 14 14 15 18 21 24 27 30 33 33 31 31 29 29 33 33 31 30 29 27 26 25 23 23 25 25 24 23 22
15 15 14 14 13 12 12 12 12 12 11 11 11 11 10 9 9 9 9 10 11 11 12 12 12 13 13 13 14 14 14 13 13 12 12 12 11 10 10 9 9 9 9 9 8 9 10 11 13 15 16 15 15 15 15 14 13 12 12 13 14 15 17 20 23 26 29 32 32 32 31 29 29 34 33 29 28 27 25 24 23 22 22 24 25 25 24 24
15 15 15 14 14 13 13 13 12 13 12 12 13 12 12 11 10 10 10 10 11 11 11 11 11 13 14 14 15 15 14 14 13 13 13 13 13 13 12 11 10 10 10 10 9 9 10 10 11 12 13 13 13 13 12 11 11 11 11 13 14 15 17 19 21 24 26 28 30 31 31 29 30 33 31 28 27 27 25 25 24 23 23 24 25 25 25 24
15 16 15 15 15 14 14 13 13 14 13 13 14 13 13 12 11 11 10 10 11 11 11 11 11 12 13 14 15 16 16 15 15 15 14 15 15 15 14 13 12 12 12 11 11 11 11 11 11 11 12 12 12 12 12 12 12 13 13 14 15 16 17 18 20 21 23 24 26 28 28 27 29 31 29 27 27 27 27 27 25 24 25 25 25 25 25 24
15 16 16 16 16 15 15 15 14 14 14 14 14 14 14 13 13 12 12 12 11 11 11 11 11 12 13 14 15 16 17 16 16 16 15 16 16 17 16 15 15 15 14 14 14 13 12 12 12 12 13 15 15 14 14 15 15 16 16 17 18 19 19 19 21 21 21 22 23 25 25 26 27 29 28 26 27 27 27 27 26 25 26 25 25 24 24 24
15 16 16 16 17 17 16 16 16 15 15 15 14 15 15 14 13 12 13 13 12 11 11 11 11 13 14 15 15 15 15 16 16 16 16 17 17 18 18 18 18 18 18 18 17 16 14 14 14 16 18 19 17 17 17 18 18 19 19 20 20 21 21 22 23 23 22 22 23 23 23 24 25 27 28 26 27 27 27 27 26 26 26 25 24 23 22 21
15 16 17 17 18 18 17 17 17 17 16 16 16 16 15 15 14 13 13 13 13 12 12 11 12 14 14 15 15 15 15 15 15 15 16 16 17 18 19 19 20 21 21 21 19 18 17 17 18 21 22 20 19 19 20 20 21 21 21 22 22 22 22 23 24 25 24 24 25 24 24 24 25 26 28 27 27 28 28 27 27 26 26 24 22 20 21 21
16 17 17 18 18 19 19 18 18 18 18 18 18 17 17 17 16 15 15 15 14 14 13 13 13 14 14 14 15 15 16 16 16 16 16 16 16 17 18 19 20 21 21 21 21 21 20 20 23 24 23 23 22 22 22 23 23 23 23 23 23 23 23 24 26 27 26 26 25 25 25 25 26 26 27 27 28 28 28 27 26 25 25 23 21 21 22 23
17 17 18 19 19 20 20 20 19 19 20 20 20 19 19 19 18 18 18 17 16 16 15 15 15 15 15 15 14 15 15 15 15 16 16 17 17 17 18 19 20 20 21 21 21 21 21 23 25 25 25 26 25 25 25 25 25 24 24 23 23 24 25 25 26 27 27 27 26 26 26 26 27 26 26 27 27 28 29 28 26 25 23 22 23 24 24 24
18 18 19 20 20 21 21 21 21 21 21 21 21 21 20 20 20 20 19 19 18 18 17 17 16 17 16 16 15 15 15 14 14 15 16 16 16 17 18 19 19 21 22 22 21 20 21 23 24 25 26 26 26 26 26 25 25 25 25 24 24 26 28 28 27 27 27 28 27 26 26 27 27 26 26 27 28 28 30 30 27 24 22 22 23 25 26 24
18 19 20 21 21 21 21 21 21 21 21 21 20 20 20 20 20 20 19 19 19 18 18 18 18 18 17 17 16 16 16 15 15 15 16 16 16 17 17 17 18 21 22 22 20 19 21 23 24 24 25 25 26 25 24 25 25 26 26 26 27 28 30 30 29 28 28 28 28 28 28 27 26 26 26 27 27 28 29 30 27 24 23 23 24 26 27 25
19 20 20 21 21 21 21 20 20 20 19 19 19 19 19 18 18 17 17 17 17 18 18 18 17 17 17 16 16 16 16 16 16 16 16 16 16 17 17 17 18 20 20 19 18 18 21 24 24 24 24 25 24 23 22 23 24 25 25 26 28 30 30 30 30 30 29 29 30 30 31 30 27 25 26 27 27 27 28 29 28 26 27 27 27 28 29 27
20 20 21 21 20 20 20 19 19 18 18 17 17 17 16 16 15 15 14 14 15 16 16 17 17 16 16 15 15 15 15 15 15 15 15 16 16 17 17 18 19 20 19 18 16 15 18 22 23 23 24 24 23 22 21 23 24 24 24 26 28 30 30 29 30 30 31 31 31 31 32 32 29 25 26 28 28 27 29 30 30 30 32 32 31 31 30 28
21 21 20 19 18 18 18 17 18 17 16 16 16 15 15 15 14 13 12 12 13 15 15 15 15 15 14 14 14 14 14 14 14 14 14 15 16 16 17 17 18 19 19 18 16 16 17 19 21 21 22 22 22 21 22 25 25 24 25 27 28 29 29 29 30 30 31 32 32 31 32 32 31 27 27 29 28 29 32 33 32 33 35 35 34 34 33 32
21 20 20 18 17 16 16 16 17 16 16 15 15 14 14 14 13 12 11 11 12 13 12 12 13 12 12 11 12 12 13 14 15 15 15 15 15 15 15 16 17 19 20 19 18 18 18 19 20 21 19 19 21 22 23 24 24 24 25 26 27 28 29 30 31 31 32 32 30 30 31 31 32 30 30 29 29 31 34 33 33 35 37 37 36 37 36 34
20 19 18 18 16 15 15 15 16 16 15 14 14 13 12 12 11 9 10 10 11 11 10 10 10 9 9 10 10 11 11 12 13 13 14 13 13 14 14 15 16 18 20 20 19 19 19 19 20 20 18 18 20 21 22 23 24 24 25 26 26 28 29 29 30 30 31 30 26 25 26 28 30 30 30 30 30 32 34 33 34 35 36 37 36 35 32 28
18 18 17 17 15 14 14 14 15 16 15 13 13 12 11 10 8 7 7 10 10 9 8 9 10 9 9 8 8 8 9 9 9 10 10 9 10 12 13 15 16 17 18 19 19 18 18 19 19 18 18 19 20 21 22 23 24 24 24 24 24 25 25 25 25 26 27 25 22 20 21 24 26 25 26 28 28 31 33 33 32 32 33 32 30 28 25 21
17 16 16 15 14 14 14 14 14 15 14 13 13 12 11 9 8 7 6 8 10 9 9 9 9 8 7 6 6 6 7 7 7 7 7 7 7 8 9 11 13 15 16 18 19 18 17 17 17 16 16 18 20 21 22 22 23 22 21 21 21 21 22 21 21 23 23 21 20 20 20 22 22 22 23 24 26 27 28 29 28 27 28 27 25 24 20 17
16 16 15 14 14 14 14 14 15 15 14 13 14 13 11 10 9 8 7 8 9 10 11 10 9 8 7 6 6 6 7 7 7 8 8 8 8 9 9 10 11 13 15 17 19 19 18 16 16 15 16 17 19 19 20 21 21 21 20 20 21 21 22 21 20 21 21 20 20 21 22 22 21 21 21 21 24 25 24 25 25 24 25 25 25 23 19 18
15 15 15 14 14 14 14 15 15 15 15 15 15 15 13 11 10 9 9 9 9 10 12 12 11 10 9 8 7 8 8 8 9 10 11 11 11 12 12 13 13 13 15 16 18 18 17 16 15 16 16 17 18 18 19 20 21 21 21 21 22 22 22 22 21 21 20 20 22 22 22 22 21 20 19 21 22 23 24 25 24 24 24 24 25 24 22 21
15 15 15 15 14 14 14 15 15 16 16 16 16 16 15 13 12 12 11 10 10 10 12 13 13 12 11 10 10 10 11 12 12 12 14 14 14 15 16 17 17 16 16 17 17 18 18 16 15 16 16 17 17 18 20 21 21 21 21 21 22 22 22 22 22 21 22 22 24 23 21 22 22 20 20 22 24 24 25 25 25 24 24 23 24 25 24 24
16 16 16 16 15 14 14 15 15 16 16 16 17 17 16 15 15 15 13 12 11 11 11 13 13 14 14 13 13 13 14 15 15 15 17 17 17 18 19 20 21 20 20 20 19 20 20 18 16 17 17 18 18 19 22 23 21 21 22 22 22 23 23 23 23 23 24 25 26 25 23 23 24 22 20 20 22 23 24 25 25 25 24 23 24 25 26 26
18 17 16 16 15 15 15 15 16 16 16 17 17 17 17 17 17 17 16 14 13 13 13 14 15 16 16 16 16 17 17 19 19 19 20 21 21 22 22 23 24 24 24 24 22 22 23 21 19 18 17 18 19 21 23 24 24 24 24 24 24 25 25 25 26 27 28 27 27 26 25 24 24 23 21 20 22 23 24 25 26 26 25 25 25 26 27 27
20 18 17 16 16 16 16 16 17 17 17 17 18 18 19 19 19 20 19 18 17 16 16 17 18 19 19 19 19 20 21 21 22 23 23 24 25 25 25 25 26 27 27 27 27 26 26 25 22 20 20 20 22 23 24 25 26 25 26 27 28 28 27 27 28 29 29 28 27 26 25 24 24 24 24 24 24 24 25 26 27 27 27 27 27 28 30 30
23 21 19 17 17 17 17 17 17 18 18 18 19 19 20 21 21 21 21 20 20 20 20 20 21 21 22 22 22 23 23 24 24 25 26 26 28 28 28 28 28 29 30 30 30 29 29 30 27 24 23 24 25 26 26 27 28 28 28 29 29 29 29 30 30 31 31 30 30 30 28 26 25 26 27 26 25 25 25 26 27 27 27 28 29 30 32 34
26 24 22 20 20 19 19 19 19 19 19 19 19 20 21 22 22 23 23 22 22 22 23 23 24 24 24 25 26 26 26 26 26 27 27 28 29 30 31 30 30 30 31 31 31 31 31 33 32 29 28 27 28 29 29 28 30 30 30 30 30 30 30 31 31 32 33 34 35 35 33 32 30 30 31 29 28 28 28 28 29 30 31 31 31 31 33 34
29 27 25 23 23 23 22 22 21 20 20 20 21 22 23 23 24 24 25 25 25 26 26 26 27 27 27 28 28 28 28 28 27 28 29 29 29 30 31 32 31 31 31 31 32 33 34 35 35 34 33 31 31 32 31 31 32 32 31 32 32 32 32 33 34 34 35 37 38 39 39 38 37 36 35 33 32 32 32 31 32 33 33 33 32 31 32 33
31 30 28 27 27 26 26 25 24 23 23 22 23 24 25 26 26 27 27 28 28 29 29 29 30 30 31 31 31 31 30 30 29 29 29 30 30 31 31 32 32 32 31 32 33 35 37 38 38 37 36 35 35 35 35 35 36 35 34 34 34 34 34 35 37 37 37 39 40 42 43 43 42 40 38 37 36 36 36 35 34 33 33 33 33 32 33 33
32 32 31 31 30 30 29 29 27 26 26 26 26 27 28 28 28 29 29 30 31 32 32 33 33 33 33 33 34 33 33 33 33 31 31 31 31 32 33 33 33 33 33 33 34 35 37 39 40 39 39 38 38 39 39 39 39 39 37 37 37 37 38 38 39 40 41 42 41 42 45 46 45 42 41 40 40 40 41 40 37 35 35 35 34 34 34 35
33 33 33 33 33 33 33 32 30 30 29 29 29 30 30 31 31 31 31 32 33 34 35 35 36 36 36 35 35 36 35 35 35 34 33 32 32 32 33 34 34 34 35 35 36 37 38 40 41 41 41 41 40 40 41 41 40 40 41 41 40 41 42 42 42 43 44 45 44 45 48 48 47 45 45 44 44 44 44 43 41 39 37 36 36 36 36 37
33 34 34 34 35 36 37 35 34 33 33 32 32 33 33 33 34 33 33 34 35 36 36 36 37 37 37 37 37 37 37 37 37 37 36 34 33 33 33 34 35 35 37 37 38 38 39 40 41 41 42 43 42 40 40 41 41 42 43 43 43 44 45 45 46 47 49 49 49 50 52 52 51 51 50 50 50 48 46 45 45 44 43 41 40 40 40 40
33 34 34 34 35 36 37 38 37 36 36 36 36 36 36 36 36 37 37 37 37 37 38 38 38 39 39 39 39 40 40 39 39 39 38 37 35 35 34 34 35 36 37 38 39 39 40 40 40 41 42 43 42 41 40 41 42 43 43 44 45 46 47 48 50 51 52 53 54 55 55 55 55 55 55 54 54 51 48 46 45 46 47 46 46 45 44 43
33 34 35 35 35 35 36 37 37 37 37 37 38 38 38 37 37 38 39 39 39 39 39 39 39 40 40 40 41 41 41 41 41 40 40 38 37 36 34 34 34 36 37 38 39 39 40 40 40 40 41 42 43 43 43 43 43 43 43 44 45 46 48 50 51 52 52 54 56 55 54 54 54 54 54 55 54 52 50 48 47 48 49 49 50 49 47 45
32 33 34 35 35 35 35 36 36 37 37 37 38 38 37 37 37 38 39 39 40 40 40 40 40 40 41 41 41 41 41 41 41 40 40 39 38 36 35 34 34 35 36 38 39 40 40 41 41 41 42 43 43 44 45 45 45 44 44 44 45 46 47 49 50 51 52 54 54 53 52 53 52 51 51 52 52 51 50 50 50 50 51 51 51 51 50 48
31 32 33 34 35 35 35 36 36 37 37 38 38 38 37 37 37 38 39 39 40 40 40 40 40 40 41 41 41 41 41 41 40 40 40 39 39 37 36 35 35 35 37 38 39 40 41 42 43 43 44 44 45 46 46 47 47 47 47 46 46 46 47 48 50 51 52 53 52 52 53 53 53 52 51 50 49 49 50 51 51 51 51 52 52 52 52 53
29 30 31 32 33 34 35 36 36 37 37 38 38 38 38 38 38 39 39 39 40 40 40 40 41 41 40 41 41 41 41 41 40 40 40 39 39 39 38 37 37 37 38 39 41 42 43 44 45 45 46 46 46 47 47 48 49 49 49 48 48 47 46 47 48 49 50 51 50 52 54 53 51 51 51 49 48 48 48 50 51 51 52 52 53 54 54 55
28 29 29 30 31 32 33 33 34 35 35 36 37 37 37 37 38 38 39 40 40 41 40 40 40 40 40 40 40 40 40 40 40 40 40 40 40 40 40 40 40 39 39 40 42 44 45 46 46 47 49 48 47 48 48 49 50 51 50 49 48 47 46 45 46 47 48 48 48 50 52 51 50 50 50 50 49 48 48 48 49 50 51 51 52 54 54 55
28 28 29 30 30 31 31 31 31 32 32 33 34 35 36 36 36 37 38 40 41 41 41 40 40 40 40 39 39 39 39 40 41 41 41 42 42 42 42 42 42 42 42 42 42 43 45 47 48 49 50 49 48 48 48 49 52 52 50 48 46 45 45 46 46 46 46 46 46 48 48 48 49 51 51 51 50 50 51 51 51 51 51 52 52 53 54 54
Wind_Direction
276 278 279 280 281 281 281 281 281 280 279 276 273 270 267 265 264 264 264 265 265 265 265 264 264 265 265 265 265 265 265 264 264 263 262 260 258 256 256 255 253 251 250 249 247 246 244 243 243 241 241 241 242 243 244 246 248 249 248 246 244 242 244 245 247 248 247 247 246 245 243 244 246 243 240 241 242 243 244 244 244 247 250 252 255 259 260 261
276 278 279 280 280 281 281 281 281 281 279 276 272 268 264 262 261 261 261 261 261 262 262 262 262 262 263 263 263 263 262 262 262 261 260 258 257 256 255 252 251 249 248 247 246 245 242 241 240 240 241 241 241 242 244 246 248 249 249 247 243 242 244 246 248 249 249 248 248 248 246 246 248 246 243 241 241 242 245 246 247 249 252 254 256 259 261 264
277 279 280 280 280 281 281 281 282 282 280 276 271 266 262 259 258 258 259 259 260 261 261 261 260 260 260 260 260 260 261 261 260 260 259 258 256 254 252 250 249 247 246 245 244 243 242 241 241 242 242 242 241 242 243 244 245 246 245 245 242 242 245 247 249 251 251 251 251 250 249 249 248 246 244 241 239 241 243 246 247 249 251 251 253 258 262 268
278 279 280 280 280 281 281 282 283 284 281 276 270 264 260 257 256 256 257 259 260 261 261 261 260 259 257 257 258 259 260 260 260 260 260 258 256 254 251 249 247 245 244 243 243 243 243 243 242 243 242 242 241 241 241 241 242 242 240 242 242 243 246 248 250 252 254 253 252 252 251 250 249 247 244 240 238 238 239 241 243 244 247 250 254 259 263 271
279 279 279 280 281 282 282 283 285 285 283 276 269 263 258 256 255 256 258 259 260 261 262 261 260 258 257 257 257 258 259 259 260 261 260 258 255 253 251 249 247 244 243 242 243 243 244 244 244 243 243 243 242 240 240 239 241 239 234 239 242 243 246 248 250 252 254 254 253 252 251 250 249 246 243 240 237 233 234 238 239 242 246 250 255 259 265 272
279 279 279 281 282 283 283 283 285 287 284 276 268 262 258 257 257 257 258 259 260 260 261 260 260 260 259 258 256 257 258 259 261 261 259 257 254 251 249 247 245 244 243 242 242 243 244 244 244 244 244 244 243 241 240 240 240 236 231 236 241 242 245 247 249 251 254 255 254 252 251 249 248 245 243 242 237 234 238 240 241 243 246 250 256 261 267 271
277 277 279 281 283 283 283 282 284 288 285 275 266 260 257 256 257 257 257 257 258 258 258 258 259 260 259 257 256 257 258 260 262 262 259 256 252 249 246 245 244 243 243 243 243 243 244 245 245 245 246 245 243 241 241 241 239 232 229 234 238 241 244 247 249 250 253 254 255 253 250 248 245 244 243 241 238 238 242 243 244 246 249 253 258 263 266 270
274 275 278 280 282 284 284 283 283 288 287 277 266 259 256 255 255 255 255 255 254 255 256 257 258 258 257 257 258 260 261 262 262 262 261 257 253 250 247 244 242 241 241 242 243 243 244 246 247 248 249 247 245 243 244 243 238 231 230 234 239 240 242 247 248 249 251 252 253 252 248 246 243 243 242 239 237 239 241 243 246 249 251 255 259 262 266 272
271 273 276 278 281 283 285 285 284 287 290 283 270 261 258 256 255 254 253 253 253 255 256 258 259 258 257 259 260 260 260 262 262 261 260 258 255 252 250 247 244 242 241 241 243 245 247 248 250 250 250 249 247 247 248 245 239 234 235 239 241 241 243 246 245 245 248 250 251 250 248 246 244 243 241 239 239 240 241 244 246 249 253 257 260 264 268 273
269 271 274 277 279 281 284 287 288 289 290 289 280 270 264 260 258 255 253 253 254 255 257 259 260 259 258 258 258 257 258 259 259 259 258 257 256 252 250 247 245 244 242 243 244 247 249 249 249 248 248 247 247 249 249 245 240 237 239 242 241 240 243 245 243 244 245 248 250 249 247 245 245 244 242 241 241 242 243 244 248 253 257 260 264 267 270 273
267 270 273 276 278 280 282 286 290 292 293 293 290 283 274 266 261 257 255 254 254 255 256 256 258 258 258 258 257 257 258 258 257 257 256 254 253 250 248 247 245 243 241 240 240 240 240 241 241 242 244 246 247 248 245 243 241 239 240 241 240 240 242 243 243 244 245 246 249 250 249 249 250 249 245 244 244 245 247 249 255 260 261 263 264 266 270 271
267 270 273 275 276 278 280 283 287 292 295 296 295 291 283 273 266 261 257 255 254 255 255 255 256 258 260 260 259 259 258 257 256 255 253 252 251 247 244 244 245 243 240 238 237 236 234 234 234 235 238 241 242 241 238 236 236 237 238 239 241 240 241 243 243 246 246 246 250 253 254 253 252 250 247 248 249 250 252 255 260 260 259 260 259 261 265 266
266 270 274 275 277 277 278 280 283 287 290 292 291 290 287 280 273 266 261 257 256 257 258 259 259 261 262 262 261 259 258 257 256 255 253 252 252 247 243 242 246 248 247 245 243 240 237 234 232 230 231 231 230 228 229 229 230 232 232 236 241 241 242 244 245 246 245 246 249 252 252 249 247 247 247 249 251 254 256 259 261 260 257 254 253 257 261 261
265 270 274 276 277 277 277 278 280 281 282 283 284 285 285 284 280 274 268 263 260 260 261 261 261 261 260 261 261 259 258 260 260 259 258 256 254 251 246 245 249 253 254 253 250 246 240 236 233 229 228 227 221 219 222 225 227 228 228 234 240 240 241 243 243 242 239 240 244 246 247 245 244 247 247 248 250 254 258 259 259 259 256 252 253 257 259 259
265 269 273 276 277 277 277 277 277 278 278 279 280 281 282 282 281 279 275 271 267 265 264 262 260 258 256 255 258 259 259 262 264 264 264 262 257 252 246 244 245 248 251 254 254 251 244 239 235 231 231 230 224 220 220 222 224 225 228 234 237 238 239 239 240 240 236 237 241 243 244 243 244 249 251 251 255 257 256 254 254 254 252 250 252 255 256 255
265 269 273 276 277 277 276 276 276 276 277 278 280 280 279 277 277 277 277 276 273 271 268 263 259 256 253 251 253 256 258 261 263 264 266 264 258 251 246 244 241 242 245 245 244 245 243 242 239 236 237 235 226 219 218 219 221 223 229 234 233 232 235 236 237 240 240 240 243 244 244 244 245 250 253 254 257 257 254 252 253 252 251 250 251 253 253 252
265 268 272 274 276 277 276 275 274 274 276 278 279 278 278 276 274 274 275 275 274 274 272 267 260 255 252 251 251 253 255 257 259 261 262 263 259 253 248 244 241 241 242 240 234 228 226 231 235 235 236 232 222 216 215 216 220 222 227 231 228 225 228 232 234 236 238 239 240 241 241 241 244 249 253 254 255 256 254 253 255 255 255 255 256 257 257 255
265 268 270 272 274 275 274 273 273 273 275 277 278 279 278 276 273 271 269 268 267 266 267 266 263 258 254 253 251 250 250 251 254 256 258 260 259 257 252 247 244 243 244 242 236 228 223 222 227 231 233 231 225 221 220 220 223 224 225 227 225 222 223 229 233 233 233 234 234 235 237 238 242 247 251 253 255 256 256 255 255 256 255 256 256 256 256 255
264 267 269 271 272 273 273 272 271 272 274 277 278 279 277 274 272 269 264 261 261 261 261 261 261 258 254 252 253 252 252 251 251 251 252 255 257 258 256 252 247 246 245 244 241 237 232 227 226 230 235 234 232 231 229 227 228 228 227 229 228 227 226 228 232 234 235 236 235 234 236 238 243 249 251 253 255 257 257 257 256 255 254 253 252 251 250 251
264 267 268 270 271 272 272 272 272 273 275 276 276 275 273 272 270 266 262 260 259 259 259 259 258 256 254 255 258 258 258 257 254 250 248 249 252 255 256 253 248 246 245 245 245 245 242 238 235 235 236 236 236 236 237 236 235 234 232 234 235 235 236 235 237 239 239 242 243 241 240 241 245 251 254 254 255 256 258 259 259 257 253 249 248 248 249 251
265 267 269 271 272 273 273 273 274 275 275 274 272 270 270 269 266 263 262 262 260 258 258 258 258 258 258 258 258 257 257 257 256 254 250 248 249 251 253 252 249 247 247 248 249 250 250 247 243 242 241 242 242 241 242 244 243 242 241 242 242 242 243 245 246 247 245 245 247 249 246 244 245 250 253 255 256 258 260 262 262 259 255 249 246 249 252 253
266 268 270 272 273 274 275 275 276 276 275 273 271 270 269 267 264 261 261 261 262 260 258 256 257 259 259 259 257 256 255 255 254 254 253 250 248 248 251 252 252 251 252 254 254 253 253 251 250 250 251 250 249 246 246 247 248 249 249 249 250 250 249 249 250 252 251 249 249 250 250 248 245 246 250 254 257 260 262 263 261 258 256 253 250 252 253 255
268 270 272 273 275 276 276 277 277 277 275 274 273 272 270 268 265 263 261 260 260 260 258 257 257 258 259 259 257 256 256 255 255 254 253 251 250 250 252 254 255 256 256 255 254 254 254 254 255 256 255 254 254 252 251 250 250 251 251 250 250 252 251 249 248 251 253 253 251 249 250 250 250 249 252 254 257 261 264 263 259 254 251 252 253 253 253 255
271 273 274 275 276 277 277 278 278 277 276 276 274 273 271 269 267 265 262 261 259 258 257 256 256 258 258 257 257 256 257 257 256 256 255 253 251 251 253 254 256 256 255 255 256 257 258 258 259 258 257 257 257 256 255 254 252 251 250 247 244 246 248 248 247 249 252 254 254 253 251 250 252 255 256 257 258 261 264 263 260 255 250 250 252 251 251 255
273 275 276 277 277 278 278 278 278 277 276 275 274 273 271 269 267 265 263 260 258 256 255 254 255 255 255 255 255 256 257 257 256 256 257 257 254 253 254 254 253 254 255 256 257 257 258 259 258 259 259 259 258 258 258 257 255 254 252 250 249 250 252 253 252 251 252 253 256 257 255 251 250 253 255 255 258 260 263 266 267 264 260 259 256 253 254 257
275 275 276 277 278 279 278 278 277 276 275 273 273 272 270 268 266 264 261 258 256 254 253 252 251 251 251 251 252 254 254 255 257 259 261 261 259 258 257 255 254 256 257 258 259 256 256 257 258 258 258 258 259 260 259 259 258 257 256 256 256 256 257 258 259 258 256 255 255 256 258 256 251 251 254 255 257 261 264 268 272 271 270 267 262 259 260 261
277 277 277 277 277 277 277 275 275 274 273 272 271 270 268 264 261 259 257 255 254 253 252 250 248 247 248 247 249 251 251 254 257 259 260 260 260 259 257 257 258 261 262 261 261 256 254 257 258 257 257 258 259 259 259 258 256 256 257 257 258 260 261 262 261 261 261 259 258 257 259 260 258 256 258 258 260 264 267 268 270 272 272 270 267 267 265 263
280 279 278 276 275 273 272 271 271 270 270 270 268 266 262 258 254 253 254 253 251 250 250 249 247 246 246 245 247 248 249 253 254 254 256 256 257 257 256 257 260 262 264 262 260 256 254 256 257 257 258 260 259 257 256 257 257 256 256 257 259 262 263 263 262 262 262 262 261 261 261 263 264 261 258 259 261 263 264 266 269 271 272 273 274 274 272 271
280 279 278 275 272 269 266 266 267 267 267 266 263 261 259 256 252 250 250 249 246 248 248 246 246 246 243 242 246 248 248 250 251 252 253 252 253 256 258 258 259 261 261 259 256 255 253 253 256 259 259 258 257 255 255 258 260 260 259 260 261 262 261 262 262 262 262 262 263 265 266 266 265 263 260 258 258 258 260 265 269 271 273 275 276 276 276 276
280 278 277 274 271 268 264 264 265 265 264 261 258 256 255 255 250 245 245 240 238 243 242 233 232 231 226 227 237 242 243 248 253 256 256 255 255 257 259 260 260 259 260 258 254 252 253 253 257 262 259 252 252 253 255 257 259 260 261 261 259 258 259 260 262 262 263 263 265 267 267 265 264 264 263 260 255 255 258 262 265 268 271 273 274 275 276 278
278 276 275 273 270 266 263 261 261 261 259 254 251 247 246 247 239 231 233 229 226 227 222 217 217 215 211 213 221 230 240 251 262 267 267 269 268 264 263 263 261 261 263 262 258 254 254 254 256 259 258 252 249 248 250 252 254 257 257 256 256 258 259 261 264 265 265 266 267 266 263 262 264 264 265 263 259 258 260 264 266 267 268 270 272 274 276 279
275 274 273 271 269 264 259 256 254 255 253 247 244 237 234 236 230 219 215 216 219 217 209 207 211 212 212 216 224 233 246 256 267 274 281 287 288 284 281 277 274 271 269 269 267 263 258 257 258 258 257 256 255 253 253 254 257 259 258 257 259 260 261 263 266 267 269 270 270 267 265 265 268 268 263 261 263 264 266 269 269 266 267 269 273 276 274 269
273 271 270 269 267 261 255 252 250 251 250 245 238 232 229 231 228 222 215 217 226 223 211 208 216 227 235 241 247 253 261 269 274 279 288 296 300 300 296 293 288 281 275 272 272 271 266 263 263 262 259 259 260 261 262 262 263 264 264 263 264 265 266 268 270 271 273 274 273 270 269 268 268 269 262 252 258 266 268 268 266 264 266 269 272 273 265 252
268 267 266 265 263 258 252 250 249 250 250 245 238 234 233 232 233 234 231 230 236 232 222 222 234 244 250 258 268 277 283 287 288 291 296 301 304 304 300 297 294 289 286 281 278 277 273 268 267 268 267 264 264 265 264 263 264 265 267 268 269 271 274 274 274 275 275 275 273 272 271 269 267 265 257 249 254 263 266 265 262 260 262 265 267 266 258 246
263 262 262 260 259 256 251 249 249 250 250 247 242 241 240 238 238 239 237 236 239 239 235 237 245 251 258 268 276 285 293 296 298 299 299 301 303 301 298 297 294 293 292 288 284 281 275 271 271 272 269 266 264 262 262 262 263 266 269 271 273 273 274 275 275 276 275 273 271 270 269 270 270 266 255 251 256 261 263 263 261 259 259 260 262 262 258 251
259 257 257 256 255 254 251 249 248 249 250 249 248 248 247 244 243 243 242 241 242 246 247 251 257 264 273 281 284 290 296 298 299 299 298 299 299 296 295 295 293 293 292 290 287 284 281 276 271 268 268 268 264 259 260 261 260 261 263 267 270 270 270 273 276 276 275 272 269 268 267 267 268 266 259 256 259 262 264 262 261 260 258 257 259 260 259 256
255 253 251 251 251 251 250 248 248 248 250 251 252 253 252 249 248 248 249 249 250 254 259 264 266 270 277 284 288 292 297 298 299 299 298 298 297 295 293 292 291 291 291 291 289 286 286 281 274 268 264 264 264 261 261 263 262 261 261 261 263 265 267 270 273 274 274 272 270 269 269 266 264 263 263 263 264 266 265 262 260 261 260 259 259 260 260 260
251 249 246 245 246 248 248 247 247 248 249 252 254 255 255 253 252 253 254 256 256 258 262 266 269 272 277 283 286 290 293 295 296 297 296 296 295 294 292 290 290 289 290 291 289 287 287 285 280 274 266 260 260 261 260 262 263 262 261 261 261 262 265 266 268 270 270 270 270 270 268 264 260 260 264 268 268 266 264 262 261 260 260 261 260 260 261 261
249 247 244 242 243 244 245 245 246 247 249 251 253 254 254 254 253 254 256 258 257 258 261 266 270 274 279 282 284 286 289 290 291 292 291 290 289 289 289 287 287 287 288 288 287 287 287 286 283 279 273 267 263 263 261 260 261 261 260 260 260 260 261 261 262 265 267 268 270 269 266 262 259 258 261 265 266 263 262 263 263 261 260 262 262 261 258 256
248 247 246 244 244 245 245 245 246 247 249 251 254 254 254 253 252 253 255 257 259 261 263 266 270 274 278 280 282 284 285 286 287 287 286 285 285 284 285 285 284 283 283 282 282 281 281 281 281 278 274 271 268 267 267 265 264 264 264 262 262 262 261 260 259 260 263 265 266 266 264 262 262 262 262 264 265 264 263 263 264 264 264 266 266 264 259 256
247 248 248 248 247 247 248 250 250 251 251 252 254 256 255 254 255 255 257 260 263 265 267 270 273 275 277 279 280 281 282 283 283 283 283 283 282 281 282 283 282 279 278 276 276 275 275 275 275 274 273 272 271 270 270 269 267 267 268 268 267 266 265 263 261 260 262 264 264 264 264 265 266 268 268 267 266 267 266 265 265 265 266 267 266 263 262 261
249 249 249 250 250 251 252 253 254 255 255 255 257 259 259 258 259 261 263 265 267 269 271 273 275 276 277 278 279 279 281 281 281 281 281 281 280 279 279 279 278 276 274 270 268 269 271 272 272 270 270 269 268 268 269 268 268 267 267 267 268 267 266 266 266 266 266 265 263 263 265 267 269 271 273 274 273 272 271 270 267 265 265 264 262 261 261 262
249 250 250 250 252 253 255 256 257 258 259 259 260 262 263 264 264 266 267 269 271 273 275 276 277 277 278 279 280 280 281 282 281 281 280 280 278 277 277 275 273 271 269 266 263 263 265 267 269 269 268 267 265 265 264 264 265 266 266 266 266 265 264 264 264 265 265 264 264 265 266 269 270 272 275 278 279 279 277 275 272 267 263 261 260 259 260 261
250 251 251 251 252 254 256 258 259 260 261 262 263 264 266 267 267 268 270 271 273 275 276 277 278 279 279 280 281 282 282 283 283 282 281 280 277 276 275 274 271 269 267 265 263 262 261 262 264 266 266 265 264 263 264 264 265 265 264 263 262 262 261 261 260 261 262 262 263 265 266 269 271 272 274 277 279 280 278 275 273 269 265 262 260 259 259 260
254 253 253 253 253 255 257 258 260 261 262 263 264 265 266 267 269 270 271 272 273 274 275 275 276 278 278 279 280 281 281 281 282 282 282 281 278 276 274 273 271 269 267 266 264 263 261 260 261 262 262 263 263 263 264 264 264 264 263 262 260 259 259 258 258 258 259 261 262 262 265 268 270 271 273 276 277 277 274 271 269 268 267 265 262 262 262 261
258 258 257 257 256 256 257 258 260 262 263 264 265 265 266 268 270 270 270 271 272 272 273 273 274 275 276 276 278 278 279 280 281 281 281 281 279 277 275 272 270 268 267 266 265 264 263 261 260 260 262 263 263 263 261 260 260 261 262 262 261 260 260 259 259 258 259 260 261 262 264 266 267 268 270 272 272 272 269 267 267 267 267 268 267 267 266 264
260 260 261 261 260 260 260 260 261 262 263 264 265 265 267 269 270 271 271 271 272 273 273 274 274 275 276 276 277 278 279 279 280 280 280 280 279 277 275 272 269 266 265 264 264 264 264 264 262 261 262 263 263 263 263 261 260 258 258 258 259 260 261 261 261 262 262 262 261 262 265 265 265 267 267 268 267 266 264 263 263 264 265 266 267 268 267 265
263 262 263 264 264 264 264 263 263 264 264 265 265 266 267 268 270 271 272 272 272 273 274 274 274 275 275 276 277 278 278 279 279 279 279 279 278 275 273 270 267 265 264 263 264 264 264 265 265 264 264 264 264 264 264 264 263 261 259 257 256 257 258 259 260 261 262 262 263 265 266 266 265 266 265 265 265 264 263 261 261 262 262 263 263 264 264 263
265 264 265 265 266 266 266 265 265 265 265 266 266 266 267 267 268 268 269 270 271 271 271 272 272 273 274 275 276 276 277 277 278 278 278 277 276 274 271 268 266 264 264 264 264 264 265 265 265 265 265 265 265 265 266 266 266 265 264 261 259 258 257 257 257 259 260 263 265 266 266 266 266 266 264 264 264 263 262 261 260 259 260 260 260 260 260 259
268 267 266 266 266 267 267 267 267 267 267 267 267 267 267 267 267 267 267 268 269 270 270 271 271 272 273 274 275 276 276 276 276 276 276 276 275 274 271 268 266 264 264 264 265 265 265 265 265 265 265 265 265 265 266 267 267 267 267 266 265 263 262 262 262 262 263 264 265 265 265 266 267 266 265 265 264 262 261 260 259 259 259 259 259 259 259 258
272 270 269 269 269 268 268 268 268 268 268 269 269 269 269 269 269 269 269 269 269 270 271 272 272 272 273 273 274 275 275 276 276 276 275 275 273 273 271 269 267 265 264 263 264 265 266 267 267 266 266 266 266 265 266 267 267 268 268 268 269 269 270 269 268 265 265 264 264 263 264 265 266 266 266 266 265 264 263 261 260 259 259 258 259 258 258 258
273 272 272 272 271 271 271 271 270 270 270 270 271 271 272 272 271 272 272 271 271 271 272 272 272 273 273 273 273 274 275 275 276 276 275 274 273 272 271 270 269 268 265 263 262 262 264 265 267 267 267 269 268 267 268 268 267 267 268 270 272 273 273 272 269 267 266 265 264 264 264 264 264 265 266 266 265 265 264 264 263 261 260 260 259 259 259 259
Height
5758 5758 5758 5757 5757 5756 5755 5755 5754 5754 5753 5753 5752 5752 5752 5753 5753 5753 5753 5754 5754 5754 5754 5754 5754 5754 5755 5755 5755 5756 5756 5756 5756 5756 5756 5756 5757 5757 5757 5758 5758 5759 5759 5760 5761 5762 5763 5764 5765 5767 5768 5769 5770 5771 5772 5773 5775 5776 5777 5779 5780 5781 5781 5780 5780 5781 5783 5785 5786 5788 5789 5790 5791 5793 5795 5797 5798 5799 5800 5801 5802 5802 5803 5804 5805 5805 5805 5804
5757 5756 5756 5755 5755 5754 5753 5753 5752 5751 5751 5750 5750 5750 5750 5750 5750 5751 5751 5751 5751 5751 5751 5752 5752 5752 5752 5753 5753 5753 5754 5754 5754 5754 5754 5754 5754 5755 5755 5756 5756 5756 5757 5758 5759 5760 5761 5762 5764 5765 5766 5767 5768 5769 5770 5771 5773 5774 5776 5777 5778 5778 5777 5777 5778 5779 5781 5782 5784 5785 5786 5788 5788 5790 5792 5794 5796 5797 5798 5799 5800 5800 5801 5802 5802 5802 5801 5802
5755 5754 5754 5753 5753 5752 5751 5751 5750 5749 5748 5748 5747 5747 5748 5748 5748 5748 5749 5749 5749 5749 5749 5749 5749 5750 5750 5750 5751 5751 5751 5752 5752 5752 5752 5752 5752 5753 5753 5753 5753 5754 5755 5756 5757 5758 5759 5761 5762 5763 5764 5765 5766 5767 5768 5769 5771 5772 5774 5775 5775 5775 5775 5775 5776 5777 5778 5780 5782 5783 5785 5785 5786 5788 5790 5792 5793 5794 5796 5796 5797 5798 5798 5799 5799 5799 5799 5800
5753 5752 5752 5751 5751 5750 5749 5749 5748 5747 5746 5746 5745 5745 5745 5746 5746 5746 5746 5747 5747 5747 5747 5747 5747 5747 5747 5748 5748 5749 5749 5749 5749 5750 5750 5750 5750 5750 5751 5751 5751 5752 5753 5754 5755 5756 5757 5759 5760 5761 5762 5762 5763 5765 5766 5767 5768 5770 5772 5772 5772 5773 5773 5773 5774 5775 5776 5778 5780 5781 5783 5783 5784 5786 5788 5790 5791 5792 5794 5794 5794 5795 5795 5796 5796 5797 5797 5799
5751 5751 5750 5750 5749 5748 5748 5747 5746 5745 5744 5744 5743 5743 5743 5744 5744 5744 5744 5745 5745 5745 5745 5745 5745 5745 5745 5746 5747 5747 5747 5747 5747 5747 5747 5747 5747 5748 5748 5749 5749 5750 5751 5752 5753 5754 5755 5756 5757 5758 5759 5760 5761 5762 5763 5765 5766 5768 5769 5769 5769 5770 5771 5770 5771 5772 5774 5776 5778 5779 5781 5782 5783 5784 5786 5788 5789 5790 5791 5791 5791 5792 5792 5793 5794 5795 5796 5797
5749 5749 5748 5748 5748 5747 5746 5745 5745 5744 5743 5742 5742 5741 5742 5742 5742 5742 5742 5743 5743 5743 5743 5743 5743 5743 5744 5744 5745 5745 5745 5745 5745 5745 5745 5745 5745 5746 5746 5746 5747 5748 5749 5750 5751 5752 5753 5754 5754 5755 5756 5757 5759 5760 5761 5762 5763 5765 5766 5766 5767 5768 5768 5768 5769 5770 5772 5774 5776 5778 5778 5780 5781 5782 5784 5786 5787 5787 5788 5789 5789 5790 5791 5792 5792 5793 5794 5795
5748 5747 5747 5747 5746 5745 5745 5744 5743 5742 5741 5740 5740 5740 5740 5740 5740 5740 5741 5741 5741 5741 5741 5741 5741 5742 5743 5743 5743 5743 5743 5743 5743 5743 5743 5743 5743 5743 5744 5744 5745 5746 5747 5747 5748 5749 5750 5751 5752 5753 5754 5755 5756 5757 5758 5759 5761 5762 5763 5764 5764 5766 5766 5766 5767 5768 5770 5771 5774 5776 5776 5778 5779 5780 5782 5784 5784 5785 5786 5787 5788 5789 5790 5790 5791 5792 5792 5792
5746 5746 5746 5745 5745 5744 5743 5743 5742 5741 5740 5739 5739 5739 5739 5739 5739 5739 5739 5739 5739 5739 5739 5740 5740 5741 5741 5741 5741 5741 5741 5741 5741 5741 5741 5741 5741 5741 5742 5742 5743 5744 5744 5745 5746 5747 5747 5748 5749 5751 5752 5753 5754 5755 5756 5757 5759 5760 5760 5761 5762 5763 5763 5764 5765 5766 5767 5769 5771 5773 5774 5776 5777 5778 5780 5781 5782 5783 5784 5785 5786 5787 5788 5789 5789 5789 5790 5790
5745 5745 5744 5744 5743 5743 5742 5741 5741 5740 5739 5738 5738 5738 5738 5738 5737 5737 5738 5738 5738 5738 5738 5738 5739 5739 5739 5740 5740 5739 5739 5739 5739 5739 5739 5739 5740 5740 5740 5740 5741 5741 5742 5743 5744 5744 5745 5747 5748 5749 5750 5751 5752 5753 5754 5756 5758 5758 5758 5759 5760 5761 5761 5762 5763 5764 5765 5767 5769 5771 5772 5774 5775 5776 5777 5778 5779 5781 5782 5783 5784 5785 5786 5786 5787 5787 5788 5788
5744 5743 5743 5743 5742 5742 5741 5740 5740 5739 5738 5738 5737 5737 5737 5737 5736 5736 5736 5736 5737 5737 5737 5737 5738 5738 5738 5738 5738 5738 5738 5738 5738 5737 5737 5738 5738 5738 5738 5739 5739 5739 5740 5741 5742 5743 5744 5745 5746 5747 5748 5749 5749 5751 5753 5754 5755 5756 5756 5757 5759 5759 5760 5761 5762 5763 5764 5765 5767 5769 5770 5771 5772 5774 5775 5777 5778 5779 5780 5781 5782 5783 5784 5784 5784 5785 5785 5785
5742 5742 5742 5741 5741 5741 5740 5739 5739 5738 5738 5737 5736 5736 5736 5736 5735 5735 5735 5735 5735 5735 5735 5736 5736 5736 5737 5736 5736 5736 5736 5736 5736 5736 5736 5736 5736 5736 5737 5737 5737 5738 5738 5739 5740 5741 5742 5743 5744 5744 5745 5746 5748 5749 5751 5752 5753 5754 5754 5756 5757 5757 5758 5759 5760 5761 5763 5764 5765 5767 5768 5769 5771 5773 5773 5774 5775 5776 5778 5779 5780 5781 5781 5781 5782 5783 5783 5783
5741 5740 5740 5740 5740 5739 5739 5738 5738 5738 5737 5736 5736 5735 5735 5735 5735 5734 5734 5734 5734 5734 5734 5734 5735 5735 5735 5735 5735 5735 5735 5735 5735 5735 5735 5735 5735 5735 5735 5736 5736 5736 5737 5737 5738 5738 5739 5740 5741 5742 5743 5744 5746 5747 5749 5750 5751 5751 5753 5754 5755 5755 5756 5757 5759 5760 5761 5763 5764 5765 5766 5768 5769 5770 5770 5772 5773 5774 5775 5777 5778 5778 5778 5779 5779 5780 5781 5780
5739 5739 5739 5739 5738 5738 5738 5737 5737 5737 5736 5736 5735 5735 5734 5734 5734 5734 5733 5733 5733 5733 5733 5733 5734 5734 5734 5734 5734 5734 5734 5734 5734 5734 5734 5734 5734 5734 5734 5735 5735 5735 5735 5736 5736 5737 5738 5739 5740 5740 5741 5742 5744 5745 5747 5748 5749 5750 5751 5752 5753 5754 5755 5756 5757 5759 5760 5761 5762 5763 5764 5765 5767 5767 5768 5769 5770 5771 5773 5774 5775 5775 5776 5776 5777 5778 5778 5778
5738 5737 5737 5737 5737 5737 5736 5736 5736 5736 5735 5735 5734 5734 5734 5733 5733 5733 5733 5732 5732 5732 5732 5732 5733 5733 5733 5733 5733 5733 5733 5733 5733 5733 5733 5733 5733 5733 5733 5733 5734 5734 5734 5735 5735 5736 5737 5738 5738 5739 5739 5740 5742 5744 5745 5746 5747 5748 5749 5750 5751 5753 5754 5754 5756 5757 5758 5758 5759 5760 5761 5763 5764 5764 5765 5766 5768 5769 5770 5771 5772 5772 5773 5774 5775 5775 5776 5776
5736 5736 5736 5736 5735 5735 5735 5735 5735 5734 5734 5733 5733 5733 5733 5733 5732 5732 5732 5732 5731 5731 5731 5731 5731 5732 5732 5732 5731 5731 5732 5732 5732 5732 5733 5733 5732 5732 5732 5732 5733 5733 5734 5734 5735 5736 5736 5737 5737 5738 5738 5740 5741 5743 5743 5744 5745 5746 5747 5748 5749 5751 5752 5753 5753 5754 5755 5755 5756 5757 5758 5761 5763 5761 5762 5764 5766 5767 5768 5768 5769 5770 5770 5771 5772 5772 5773 5773
5734 5734 5734 5734 5734 5734 5734 5734 5733 5733 5733 5732 5732 5732 5732 5732 5731 5731 5731 5731 5730 5730 5730 5730 5730 5730 5730 5730 5731 5730 5731 5731 5731 5732 5732 5732 5732 5732 5732 5732 5732 5733 5733 5734 5734 5735 5736 5736 5737 5737 5738 5739 5741 5741 5742 5743 5744 5745 5746 5747 5748 5749 5749 5750 5751 5752 5753 5754 5755 5756 5757 5760 5761 5759 5760 5763 5763 5763 5764 5765 5766 5767 5768 5768 5769 5769 5769 5770
5733 5733 5733 5733 5733 5733 5732 5732 5732 5732 5731 5731 5731 5730 5730 5730 5730 5730 5730 5730 5729 5729 5729 5729 5729 5729 5728 5729 5729 5729 5730 5730 5730 5731 5731 5731 5731 5731 5731 5731 5732 5732 5733 5733 5734 5734 5735 5735 5736 5737 5738 5739 5739 5740 5741 5742 5743 5744 5745 5746 5747 5747 5748 5748 5749 5750 5751 5752 5753 5754 5755 5758 5758 5757 5758 5760 5760 5761 5762 5763 5764 5765 5765 5765 5766 5766 5767 5767
5731 5731 5731 5731 5731 5731 5731 5731 5730 5730 5730 5730 5729 5729 5729 5729 5729 5729 5729 5728 5728 5728 5728 5728 5728 5728 5727 5727 5727 5728 5728 5729 5729 5729 5730 5730 5730 5730 5730 5731 5731 5731 5732 5732 5733 5734 5734 5735 5736 5737 5737 5737 5738 5739 5740 5741 5742 5743 5744 5745 5745 5746 5746 5747 5747 5748 5749 5750 5751 5752 5753 5756 5756 5754 5756 5757 5758 5758 5759 5760 5762 5763 5763 5763 5763 5763 5764 5764
5729 5729 5729 5729 5729 5729 5729 5729 5729 5728 5728 5728 5728 5728 5728 5728 5728 5727 5727 5727 5727 5727 5727 5727 5727 5727 5726 5726 5726 5726 5727 5727 5728 5728 5728 5728 5729 5729 5729 5730 5730 5730 5731 5731 5732 5733 5734 5735 5735 5736 5736 5736 5736 5737 5738 5739 5740 5742 5743 5743 5744 5745 5745 5745 5745 5746 5748 5748 5749 5751 5752 5754 5753 5752 5754 5755 5755 5756 5756 5758 5759 5760 5760 5760 5760 5761 5761 5761
5728 5728 5728 5727 5727 5727 5727 5727 5727 5727 5727 5727 5726 5726 5726 5726 5726 5726 5726 5725 5725 5726 5725 5726 5725 5725 5725 5725 5725 5725 5725 5726 5726 5727 5727 5727 5727 5728 5728 5729 5729 5729 5729 5730 5731 5732 5733 5734 5735 5734 5733 5733 5735 5736 5737 5738 5739 5740 5741 5741 5742 5743 5744 5744 5744 5744 5745 5746 5747 5749 5750 5752 5752 5751 5751 5752 5753 5753 5754 5755 5756 5757 5757 5757 5757 5758 5758 5758
5726 5726 5726 5726 5725 5725 5725 5725 5725 5725 5725 5725 5724 5724 5724 5724 5724 5724 5724 5724 5724 5724 5724 5724 5724 5723 5723 5724 5724 5724 5724 5724 5724 5725 5725 5726 5726 5726 5727 5727 5727 5727 5728 5728 5730 5731 5732 5733 5732 5731 5731 5732 5734 5735 5735 5736 5737 5738 5738 5739 5740 5741 5742 5742 5742 5742 5743 5744 5745 5746 5747 5749 5749 5749 5748 5749 5750 5750 5751 5752 5753 5753 5754 5755 5755 5756 5756 5756
5724 5724 5724 5724 5724 5723 5723 5723 5723 5723 5722 5722 5722 5722 5722 5722 5722 5722 5722 5722 5723 5723 5723 5723 5722 5722 5722 5722 5722 5722 5722 5722 5723 5723 5724 5724 5724 5724 5724 5725 5725 5725 5726 5727 5728 5729 5730 5730 5729 5729 5730 5731 5732 5733 5733 5734 5735 5735 5736 5737 5738 5739 5739 5740 5739 5739 5739 5741 5742 5743 5744 5745 5746 5747 5747 5747 5747 5747 5748 5749 5750 5750 5751 5752 5753 5753 5753 5753
5723 5722 5722 5722 5721 5721 5721 5721 5721 5720 5720 5720 5720 5720 5720 5720 5720 5720 5720 5720 5721 5721 5721 5721 5721 5720 5720 5720 5720 5720 5720 5721 5721 5721 5722 5722 5722 5722 5722 5723 5723 5724 5724 5725 5726 5727 5728 5727 5727 5728 5729 5729 5730 5730 5731 5732 5732 5733 5734 5735 5735 5735 5735 5736 5736 5736 5736 5737 5739 5740 5741 5742 5743 5744 5745 5745 5745 5745 5745 5746 5747 5748 5748 5749 5749 5749 5750 5750
5721 5720 5720 5720 5719 5719 5719 5719 5718 5718 5718 5718 5718 5718 5718 5718 5718 5718 5718 5718 5718 5718 5719 5719 5719 5719 5719 5719 5719 5719 5719 5719 5720 5720 5720 5720 5721 5721 5721 5721 5722 5722 5722 5722 5723 5725 5725 5725 5725 5725 5726 5726 5727 5728 5729 5730 5730 5731 5731 5732 5732 5732 5731 5732 5733 5733 5733 5734 5735 5737 5738 5739 5741 5742 5743 5743 5742 5742 5741 5742 5744 5745 5746 5746 5746 5746 5746 5747
5719 5718 5718 5718 5717 5717 5716 5716 5716 5715 5715 5715 5715 5715 5715 5715 5715 5715 5715 5715 5716 5716 5716 5716 5717 5717 5717 5717 5717 5717 5717 5717 5718 5718 5718 5718 5719 5719 5719 5720 5720 5719 5719 5720 5722 5723 5722 5722 5722 5723 5723 5724 5724 5725 5727 5727 5728 5728 5729 5729 5729 5729 5728 5729 5730 5730 5730 5731 5732 5733 5734 5735 5738 5739 5740 5740 5739 5739 5739 5738 5739 5741 5741 5741 5742 5742 5742 5742
5716 5716 5716 5716 5715 5714 5714 5714 5713 5713 5713 5713 5713 5713 5713 5713 5713 5713 5713 5713 5713 5713 5714 5714 5715 5715 5715 5715 5715 5715 5715 5715 5716 5716 5716 5717 5717 5717 5717 5718 5717 5717 5717 5719 5720 5721 5720 5718 5719 5720 5720 5721 5722 5723 5724 5724 5725 5725 5726 5726 5726 5725 5725 5726 5727 5727 5727 5728 5728 5729 5729 5731 5734 5736 5736 5736 5736 5736 5736 5735 5735 5736 5736 5736 5736 5736 5737 5738
5714 5714 5714 5713 5713 5712 5712 5711 5711 5711 5711 5711 5711 5711 5711 5711 5711 5711 5711 5711 5711 5711 5711 5712 5712 5713 5713 5713 5713 5713 5713 5714 5714 5714 5715 5715 5715 5716 5716 5715 5715 5715 5716 5717 5718 5718 5717 5716 5716 5717 5717 5718 5720 5721 5721 5721 5721 5722 5723 5723 5722 5722 5722 5723 5723 5723 5724 5724 5725 5726 5726 5727 5730 5733 5733 5732 5733 5733 5732 5731 5731 5731 5731 5730 5731 5732 5733 5735
5711 5711 5711 5711 5711 5710 5710 5709 5709 5709 5709 5709 5709 5709 5709 5709 5709 5709 5709 5709 5709 5709 5709 5710 5710 5711 5711 5711 5711 5711 5712 5712 5712 5712 5713 5713 5713 5713 5713 5713 5713 5713 5713 5714 5715 5715 5715 5714 5713 5714 5715 5716 5717 5717 5717 5717 5718 5719 5720 5719 5719 5719 5720 5720 5720 5720 5720 5720 5721 5722 5723 5724 5725 5728 5729 5728 5729 5729 5727 5727 5728 5727 5727 5727 5729 5729 5730 5732
5709 5709 5709 5709 5709 5708 5708 5707 5707 5707 5707 5707 5707 5707 5707 5707 5707 5707 5707 5707 5707 5707 5708 5708 5709 5709 5710 5710 5710 5710 5710 5710 5710 5711 5711 5711 5711 5711 5711 5711 5711 5711 5711 5711 5712 5712 5712 5712 5711 5712 5713 5713 5714 5714 5714 5714 5715 5716 5716 5717 5717 5717 5717 5717 5716 5717 5716 5717 5719 5719 5720 5720 5721 5723 5724 5724 5725 5724 5724 5725 5725 5724 5724 5725 5726 5727 5727 5728
5707 5707 5707 5706 5706 5706 5706 5706 5705 5705 5705 5706 5706 5706 5706 5706 5706 5705 5706 5706 5706 5706 5707 5707 5707 5708 5708 5708 5709 5709 5709 5709 5709 5709 5709 5709 5709 5709 5709 5709 5709 5709 5708 5709 5709 5709 5709 5710 5710 5710 5711 5711 5711 5711 5712 5712 5713 5713 5714 5714 5714 5714 5714 5714 5714 5714 5713 5714 5716 5717 5717 5717 5716 5717 5718 5720 5722 5721 5721 5722 5722 5722 5722 5722 5723 5724 5724 5725
5705 5705 5704 5704 5704 5704 5704 5704 5704 5703 5704 5704 5704 5704 5705 5705 5705 5705 5705 5705 5705 5706 5706 5706 5706 5706 5707 5707 5708 5708 5708 5707 5707 5707 5707 5707 5707 5707 5707 5707 5707 5707 5706 5706 5706 5707 5707 5707 5708 5709 5709 5709 5709 5709 5710 5710 5710 5711 5711 5711 5711 5711 5711 5711 5711 5711 5711 5712 5713 5714 5714 5713 5713 5714 5714 5715 5717 5717 5717 5718 5719 5719 5719 5720 5721 5721 5722 5722
5703 5703 5703 5703 5703 5702 5702 5702 5702 5702 5702 5703 5703 5703 5703 5704 5704 5704 5704 5704 5704 5705 5705 5705 5705 5706 5706 5707 5707 5707 5706 5706 5706 5706 5706 5706 5706 5706 5705 5705 5704 5704 5704 5703 5704 5704 5704 5705 5705 5706 5707 5707 5707 5708 5708 5708 5708 5708 5708 5709 5709 5708 5709 5709 5709 5709 5709 5709 5710 5710 5711 5710 5711 5711 5711 5711 5713 5714 5714 5715 5716 5716 5717 5718 5719 5720 5721 5721
5701 5701 5701 5701 5701 5701 5701 5701 5701 5701 5701 5701 5702 5702 5702 5703 5703 5703 5703 5703 5704 5704 5704 5704 5704 5705 5705 5705 5705 5705 5705 5705 5705 5704 5704 5704 5704 5704 5703 5703 5703 5702 5702 5701 5701 5702 5702 5703 5703 5704 5705 5705 5705 5706 5706 5706 5706 5706 5706 5706 5706 5706 5706 5707 5707 5706 5706 5707 5707 5707 5708 5708 5708 5709 5709 5709 5710 5711 5712 5712 5713 5714 5715 5716 5718 5719 5720 5720
5699 5699 5699 5699 5699 5699 5699 5699 5699 5699 5700 5700 5700 5700 5701 5702 5702 5702 5702 5702 5703 5703 5703 5703 5703 5703 5704 5704 5704 5704 5703 5703 5703 5703 5702 5702 5702 5702 5701 5701 5701 5700 5700 5700 5699 5700 5700 5701 5701 5702 5702 5703 5703 5704 5704 5703 5703 5703 5703 5703 5704 5704 5704 5704 5705 5704 5704 5704 5704 5705 5705 5705 5706 5707 5707 5707 5708 5708 5709 5710 5711 5712 5713 5715 5716 5717 5718 5719
5697 5697 5697 5697 5697 5697 5697 5698 5698 5698 5698 5698 5699 5699 5700 5700 5701 5701 5701 5701 5701 5701 5701 5701 5701 5702 5702 5702 5702 5702 5701 5701 5701 5701 5700 5700 5700 5700 5699 5699 5698 5698 5698 5698 5698 5698 5698 5699 5699 5699 5700 5700 5701 5701 5701 5701 5702 5701 5701 5701 5701 5702 5702 5702 5702 5703 5703 5702 5702 5703 5703 5703 5703 5704 5705 5706 5706 5706 5707 5708 5709 5710 5711 5712 5714 5715 5716 5717
5695 5695 5695 5695 5695 5695 5695 5696 5696 5696 5696 5696 5697 5697 5698 5698 5699 5699 5699 5700 5700 5700 5700 5700 5700 5700 5699 5699 5700 5699 5699 5699 5699 5699 5698 5698 5698 5697 5697 5696 5695 5696 5696 5695 5695 5695 5695 5697 5697 5697 5697 5698 5699 5699 5698 5699 5699 5699 5699 5699 5699 5699 5700 5700 5700 5700 5700 5700 5700 5700 5701 5701 5700 5701 5702 5704 5704 5704 5705 5705 5706 5707 5708 5710 5711 5712 5713 5715
5692 5693 5693 5693 5693 5693 5693 5693 5693 5694 5694 5694 5694 5695 5696 5696 5697 5697 5698 5698 5698 5698 5698 5698 5698 5698 5697 5697 5697 5697 5697 5696 5696 5696 5695 5695 5694 5694 5694 5694 5693 5693 5692 5692 5693 5693 5692 5693 5695 5695 5695 5695 5696 5696 5696 5696 5696 5696 5696 5697 5697 5697 5697 5697 5697 5696 5696 5696 5696 5697 5698 5698 5698 5698 5699 5700 5701 5702 5702 5702 5703 5704 5705 5707 5708 5709 5710 5711
5690 5690 5691 5691 5691 5691 5691 5691 5691 5691 5692 5692 5692 5693 5693 5694 5694 5695 5695 5696 5696 5696 5696 5696 5695 5695 5695 5695 5695 5695 5694 5694 5693 5693 5692 5692 5691 5691 5691 5690 5690 5689 5689 5689 5689 5689 5689 5689 5691 5692 5692 5693 5693 5693 5693 5693 5693 5694 5694 5693 5693 5694 5694 5694 5694 5693 5692 5692 5693 5693 5694 5695 5695 5695 5696 5697 5698 5698 5699 5699 5700 5701 5702 5704 5705 5706 5706 5707
5687 5688 5688 5688 5688 5688 5688 5689 5689 5689 5689 5689 5690 5690 5690 5691 5692 5692 5692 5692 5693 5693 5693 5693 5693 5693 5693 5693 5693 5692 5692 5691 5691 5690 5689 5689 5688 5687 5687 5687 5687 5686 5686 5685 5685 5685 5685 5684 5686 5688 5689 5689 5689 5689 5690 5690 5690 5690 5691 5690 5690 5690 5691 5690 5690 5690 5689 5689 5689 5689 5690 5691 5692 5692 5693 5693 5694 5695 5696 5697 5698 5698 5699 5700 5701 5702 5703 5703
5684 5685 5685 5685 5685 5685 5686 5686 5686 5687 5687 5687 5687 5687 5687 5688 5688 5689 5689 5689 5689 5690 5690 5690 5690 5690 5690 5690 5690 5689 5689 5689 5688 5687 5687 5686 5685 5684 5683 5684 5684 5683 5682 5682 5681 5681 5680 5680 5680 5682 5684 5684 5685 5685 5686 5686 5686 5686 5687 5687 5687 5687 5687 5687 5687 5686 5686 5685 5685 5684 5684 5685 5687 5688 5689 5690 5691 5692 5693 5694 5695 5695 5695 5696 5697 5698 5698 5699
5681 5681 5682 5682 5682 5682 5682 5683 5683 5684 5684 5684 5684 5684 5684 5684 5685 5685 5686 5686 5686 5686 5686 5686 5687 5687 5687 5686 5686 5686 5686 5685 5685 5684 5683 5683 5682 5681 5680 5680 5680 5680 5679 5679 5678 5677 5676 5676 5676 5677 5678 5680 5680 5680 5681 5682 5682 5682 5682 5682 5683 5683 5683 5683 5682 5682 5682 5682 5681 5680 5679 5680 5681 5683 5685 5687 5687 5688 5689 5691 5692 5692 5692 5692 5693 5693 5694 5695
5677 5678 5679 5679 5679 5679 5679 5679 5680 5680 5681 5681 5681 5681 5681 5681 5682 5682 5682 5682 5682 5682 5682 5682 5683 5683 5682 5682 5682 5682 5682 5681 5681 5680 5679 5678 5678 5677 5676 5676 5675 5675 5676 5675 5674 5673 5672 5671 5671 5672 5673 5675 5675 5675 5676 5677 5677 5678 5678 5679 5679 5679 5679 5678 5678 5678 5678 5677 5676 5676 5674 5674 5676 5678 5680 5681 5682 5683 5684 5686 5687 5688 5688 5689 5689 5690 5690 5691
5674 5674 5675 5675 5675 5675 5675 5676 5677 5677 5677 5677 5677 5677 5677 5677 5678 5678 5678 5678 5678 5678 5678 5678 5678 5678 5678 5677 5677 5677 5677 5676 5676 5676 5675 5674 5673 5672 5672 5672 5671 5670 5670 5670 5670 5669 5668 5666 5666 5667 5668 5669 5670 5670 5671 5671 5672 5673 5674 5675 5675 5675 5675 5674 5674 5674 5673 5672 5673 5672 5670 5669 5671 5673 5674 5676 5677 5678 5678 5679 5681 5683 5684 5684 5685 5686 5686 5686
5670 5670 5671 5672 5672 5671 5671 5672 5673 5673 5673 5674 5674 5674 5674 5674 5674 5674 5675 5674 5674 5674 5674 5673 5673 5673 5672 5672 5672 5671 5671 5671 5670 5671 5670 5669 5669 5668 5667 5666 5665 5665 5664 5664 5664 5664 5664 5663 5662 5662 5662 5663 5664 5665 5665 5666 5667 5667 5668 5669 5670 5670 5670 5670 5669 5669 5668 5667 5669 5668 5665 5665 5666 5667 5669 5670 5671 5672 5673 5673 5675 5676 5678 5679 5680 5681 5682 5682
5666 5666 5667 5667 5668 5667 5667 5668 5669 5669 5669 5670 5670 5670 5670 5670 5670 5670 5670 5670 5670 5670 5669 5669 5668 5668 5667 5667 5667 5666 5666 5666 5665 5665 5665 5664 5663 5663 5662 5661 5660 5659 5659 5658 5658 5658 5658 5658 5657 5657 5656 5656 5658 5659 5660 5661 5661 5661 5662 5662 5663 5663 5664 5664 5664 5663 5662 5661 5662 5662 5661 5661 5662 5662 5663 5664 5665 5667 5667 5667 5668 5670 5672 5673 5675 5676 5676 5677
5661 5662 5662 5663 5663 5663 5663 5664 5664 5665 5665 5666 5665 5665 5666 5666 5665 5665 5666 5665 5665 5665 5665 5664 5664 5664 5663 5662 5662 5661 5661 5661 5660 5660 5659 5659 5658 5657 5657 5656 5655 5654 5653 5653 5653 5652 5652 5652 5652 5652 5651 5651 5652 5653 5654 5655 5654 5654 5655 5656 5656 5656 5656 5657 5656 5656 5656 5656 5655 5655 5655 5656 5657 5657 5658 5659 5659 5660 5661 5661 5662 5664 5665 5667 5668 5669 5670 5671
5658 5658 5657 5658 5658 5659 5659 5659 5660 5660 5661 5661 5661 5661 5661 5661 5661 5660 5660 5660 5660 5660 5659 5659 5659 5658 5658 5657 5657 5656 5656 5655 5655 5654 5654 5653 5652 5652 5651 5651 5650 5649 5648 5647 5647 5647 5646 5646 5647 5647 5647 5646 5646 5646 5647 5647 5648 5648 5649 5649 5649 5649 5649 5649 5649 5649 5650 5648 5647 5649 5650 5650 5651 5652 5652 5652 5652 5653 5655 5656 5656 5657 5658 5660 5661 5662 5663 5664
5653 5653 5653 5653 5653 5654 5654 5655 5655 5655 5656 5656 5656 5656 5657 5657 5656 5655 5655 5654 5654 5654 5654 5653 5653 5653 5652 5652 5651 5651 5650 5649 5649 5648 5648 5647 5647 5646 5646 5645 5645 5644 5643 5642 5642 5641 5641 5641 5641 5641 5641 5641 5641 5640 5640 5640 5641 5641 5642 5643 5643 5643 5643 5643 5643 5643 5642 5641 5642 5644 5644 5644 5645 5645 5645 5645 5645 5646 5648 5649 5650 5651 5651 5653 5654 5655 5656 5657
5649 5649 5649 5649 5649 5649 5649 5650 5650 5650 5650 5651 5651 5651 5652 5652 5651 5651 5650 5649 5649 5649 5649 5648 5648 5647 5647 5646 5646 5645 5644 5644 5643 5643 5642 5641 5641 5640 5640 5640 5639 5639 5638 5637 5636 5636 5635 5635 5635 5635 5635 5636 5635 5634 5634 5634 5634 5634 5635 5636 5637 5637 5637 5637 5637 5637 5636 5636 5638 5638 5637 5637 5639 5638 5638 5639 5640 5640 5641 5641 5642 5643 5644 5645 5646 5647 5649 5649
5645 5645 5645 5644 5644 5644 5644 5644 5644 5645 5645 5645 5645 5646 5646 5646 5645 5645 5644 5644 5643 5643 5643 5643 5642 5642 5641 5640 5640 5639 5638 5638 5638 5637 5637 5636 5635 5635 5634 5634 5634 5634 5633 5632 5631 5630 5630 5629 5629 5629 5629 5630 5630 5629 5629 5628 5627 5628 5628 5629 5630 5631 5632 5632 5632 5633 5632 5632 5634 5632 5630 5633 5634 5632 5632 5633 5634 5634 5634 5634 5635 5636 5637 5638 5638 5639 5640 5641
5640 5640 5640 5640 5639 5639 5639 5639 5639 5639 5639 5639 5639 5639 5639 5639 5639 5639 5638 5638 5638 5637 5637 5637 5636 5636 5636 5635 5634 5634 5633 5633 5632 5631 5631 5630 5629 5629 5628 5628 5628 5628 5628 5627 5625 5625 5623 5623 5624 5623 5621 5623 5624 5624 5623 5622 5621 5621 5622 5623 5624 5625 5626 5627 5627 5627 5627 5627 5627 5625 5625 5628 5629 5625 5625 5627 5627 5627 5627 5628 5628 5629 5629 5630 5630 5631 5631 5632
5636 5635 5635 5635 5635 5635 5635 5635 5634 5634 5634 5634 5634 5634 5634 5633 5633 5633 5632 5631 5631 5631 5631 5631 5630 5630 5630 5630 5629 5629 5628 5627 5626 5625 5625 5624 5623 5623 5622 5622 5622 5622 5622 5621 5621 5620 5618 5617 5618 5616 5614 5617 5618 5618 5618 5617 5614 5614 5616 5619 5619 5619 5619 5619 5619 5619 5620 5619 5619 5619 5620 5623 5622 5619 5619 5620 5620 5620 5620 5620 5621 5621 5622 5622 5622 5623 5624 5624